Location: Acton
(51.4942°N, 0.2232°W)
Time: 02:21:52
(UTC+00:00)

CREW DRAGON DEMO-1 DEB - Pass Details

Date: 18 September 2020
Orbit: 361 x 363 km, 51.6° (Epoch: 30 October)

Event Time Altitude Azimuth Distance (km) Brightness Sun altitude
Rises 20:07:00 0° 278° (W) 2,199 8.0 -18.7°
Reaches altitude 10° 20:09:02 10° 278° (W) 1,352 6.7 -18.9°
Enters shadow 20:11:50 74° 257° (WSW) 384 2.8 -19.3°
